Weather History for KSFY - April, 2014

Change the Weather History Date:

Monday, April 14, 2014

  Actual Average (KCWI) Record (KCWI)
Temperature  
Mean Temperature 39 °F -  
Max Temperature 45 °F 61 °F 87 °F (2003)
Min Temperature 32 °F 40 °F 24 °F (1957)
Degree Days  
Heating Degree Days 26    
Moisture  
Dew Point 30 °F    
Average Humidity 78    
Maximum Humidity 91    
Minimum Humidity 63    
Precipitation  
Precipitation 0.12 in - - ()
Sea Level Pressure  
Sea Level Pressure 29.83 in    
Wind  
Wind Speed 16 mph (NNW)    
Max Wind Speed 25 mph    
Max Gust Speed 41 mph    
Visibility 9 miles    
Events Rain , Snow    
Averages and records for this station are not official NWS values.
T = Trace of Precipitation, MM = Missing Value Source: NWS Daily Summary

Daily Weather History Graph

Daily Weather History Graph

Search for Another Location

Airport or City:

Trip Planner

Search our weather history database for the weather conditions in past years. The results will help you decide how hot, cold, wet, or windy it might be!

Date:

Astronomy

Apr. 14, 2014 Rise Set
Actual Time 6:21 AM CDT 7:40 PM CDT
Civil Twilight 5:52 AM CDT 8:09 PM CDT
Nautical Twilight 5:17 AM CDT 8:44 PM CDT
Astronomical Twilight 4:41 AM CDT 9:21 PM CDT
Moon 7:19 PM CDT (4/14) 5:54 AM CDT (4/14)
Length of Visible Light 14h 17m
Length of Day
13h 19m
Full, 100% of the Moon is Illuminated
Apr 14
Full
Apr 15
Full
Apr 22
Last Quarter
Apr 29
New
May 6
First Quarter

Hourly Weather History & Observations

Time (CDT) Temp. Windchill Dew Point Humidity Pressure Visibility Wind Dir Wind Speed Gust Speed Precip Events Conditions
12:15 AM 46.6 °F - 44.1 °F 91% 29.41 in 7.0 mi North 18.4 mph 27.6 mph 0.02 in Rain Light Rain
12:30 AM 46.4 °F 38.5 °F 43.7 °F 90% 29.41 in 10.0 mi North 21.9 mph 28.8 mph 0.03 in Rain Light Rain
12:55 AM 45.7 °F 38.8 °F 43.0 °F 90% 29.41 in 10.0 mi North 16.1 mph 28.8 mph 0.04 in Rain Light Rain
1:15 AM 45.5 °F 37.6 °F 42.8 °F 90% 29.40 in 10.0 mi North 20.7 mph 26.5 mph N/A   Overcast
1:35 AM 45.1 °F 37.6 °F 42.1 °F 89% 29.43 in 10.0 mi North 18.4 mph 25.3 mph N/A Rain Rain
1:55 AM 44.8 °F 37.1 °F 42.1 °F 90% 29.45 in 2.5 mi North 18.4 mph 34.5 mph 0.03 in Rain Rain
2:15 AM 44.1 °F 36.8 °F 41.5 °F 91% 29.46 in 3.0 mi North 16.1 mph 33.4 mph 0.01 in Rain Rain
2:35 AM 43.7 °F 35.4 °F 41.2 °F 91% 29.49 in 7.0 mi North 19.6 mph 26.5 mph 0.03 in Rain Light Rain
2:55 AM 43.5 °F 35.5 °F 41.0 °F 91% 29.51 in 7.0 mi NNW 18.4 mph 24.2 mph 0.05 in Rain Light Rain
3:15 AM 42.1 °F 33.6 °F 38.8 °F 88% 29.54 in 10.0 mi NNW 18.4 mph 35.7 mph N/A   Drizzle
3:35 AM 40.5 °F 30.4 °F 36.7 °F 86% 29.57 in 10.0 mi NNW 23.0 mph 38.0 mph N/A   Overcast
3:55 AM 39.0 °F 28.3 °F 34.7 °F 84% 29.57 in 10.0 mi North 24.2 mph 41.4 mph N/A   Overcast
4:15 AM 37.8 °F 26.6 °F 33.8 °F 86% 29.59 in 10.0 mi NNW 24.2 mph 33.4 mph N/A   Overcast
4:35 AM 37.6 °F 27.7 °F 33.1 °F 84% 29.60 in 10.0 mi NNW 18.4 mph 34.5 mph N/A   Overcast
4:55 AM 37.4 °F 25.9 °F 32.9 °F 84% 29.61 in 10.0 mi NNW 25.3 mph 33.4 mph N/A   Overcast
5:15 AM 37.6 °F 27.1 °F 33.1 °F 84% 29.63 in 10.0 mi North 20.7 mph 29.9 mph N/A   Overcast
5:35 AM 37.6 °F 26.9 °F 32.9 °F 83% 29.63 in 10.0 mi North 21.9 mph 28.8 mph N/A   Overcast
5:55 AM 37.4 °F 27.8 °F 32.7 °F 83% 29.65 in 10.0 mi North 17.3 mph 28.8 mph N/A   Overcast
6:15 AM 37.0 °F 27.4 °F 32.2 °F 83% 29.67 in 10.0 mi NNW 17.3 mph 28.8 mph N/A   Overcast
6:35 AM 36.9 °F 27.5 °F 32.0 °F 83% 29.71 in 10.0 mi NNW 16.1 mph 21.9 mph N/A   Overcast
6:55 AM 37.0 °F 27.4 °F 32.0 °F 82% 29.74 in 10.0 mi NNW 17.3 mph 25.3 mph N/A   Overcast
7:15 AM 37.2 °F 28.7 °F 32.0 °F 81% 29.76 in 10.0 mi NW 13.8 mph 20.7 mph N/A   Overcast
7:35 AM 36.9 °F 26.8 °F 31.6 °F 81% 29.77 in 10.0 mi NNW 18.4 mph 24.2 mph N/A   Overcast
7:55 AM 37.4 °F 28.9 °F 31.6 °F 80% 29.78 in 10.0 mi NNW 13.8 mph 18.4 mph N/A   Overcast
8:15 AM 37.2 °F 27.9 °F 31.1 °F 79% 29.79 in 10.0 mi NNW 16.1 mph 24.2 mph N/A   Overcast
8:35 AM 37.4 °F 27.8 °F 31.1 °F 78% 29.79 in 10.0 mi North 17.3 mph 25.3 mph N/A   Overcast
8:55 AM 37.0 °F 28.1 °F 30.9 °F 79% 29.81 in 10.0 mi North 15.0 mph 24.2 mph N/A   Overcast
9:15 AM 37.0 °F 27.7 °F 30.4 °F 77% 29.83 in 10.0 mi NNW 16.1 mph 27.6 mph N/A   Overcast
9:35 AM 36.9 °F 27.8 °F 30.4 °F 77% 29.86 in 10.0 mi NNW 15.0 mph 20.7 mph N/A   Overcast
9:55 AM 36.7 °F 28.9 °F 29.7 °F 76% 29.87 in 10.0 mi NNW 11.5 mph 25.3 mph N/A   Overcast
10:15 AM 36.1 °F 26.5 °F 29.7 °F 77% 29.89 in 10.0 mi NW 16.1 mph 24.2 mph N/A   Overcast
10:35 AM 36.0 °F 27.1 °F 29.1 °F 76% 29.91 in 10.0 mi NNW 13.8 mph 19.6 mph N/A   Overcast
10:55 AM 36.1 °F 28.2 °F 28.6 °F 74% 29.92 in 10.0 mi NNW 11.5 mph - N/A   Overcast
11:15 AM 35.6 °F 26.6 °F 28.6 °F 76% 29.92 in 10.0 mi NNW 13.8 mph - N/A   Overcast
11:40 AM 35.2 °F 25.8 °F 28.6 °F 77% 29.92 in 10.0 mi NNW 15.0 mph 19.6 mph N/A   Overcast
11:55 AM 34.9 °F 23.9 °F 27.9 °F 76% 29.93 in 10.0 mi NNW 19.6 mph 24.2 mph N/A   Overcast
12:15 PM 34.9 °F 27.1 °F 27.9 °F 76% 29.94 in 5.0 mi NNW 10.4 mph - N/A Snow Light Snow
12:35 PM 35.1 °F 25.5 °F 28.0 °F 76% 29.93 in 7.0 mi NNW 15.0 mph 18.4 mph N/A Snow Light Snow
12:55 PM 35.2 °F 26.2 °F 28.2 °F 76% 29.91 in 10.0 mi North 13.8 mph - N/A Snow Light Snow
1:15 PM 35.8 °F 28.8 °F 29.3 °F 77% 29.92 in 7.0 mi NNW 9.2 mph 18.4 mph N/A Snow Light Snow
1:35 PM 36.5 °F 27.8 °F 29.7 °F 76% 29.94 in 10.0 mi NNW 13.8 mph 18.4 mph N/A Snow Light Snow
1:55 PM 35.6 °F 25.9 °F 29.5 °F 78% 29.94 in 5.0 mi NNW 16.1 mph 19.6 mph N/A Snow Light Snow
2:15 PM 35.8 °F 27.3 °F 30.0 °F 80% 29.94 in 2.5 mi NNW 12.7 mph 20.7 mph N/A Snow Light Snow
2:35 PM 35.8 °F 25.7 °F 29.1 °F 77% 29.95 in 7.0 mi NNW 17.3 mph 20.7 mph N/A Snow Light Snow
2:50 PM 36.3 °F 26.8 °F 28.8 °F 74% 29.95 in 7.0 mi NNW 16.1 mph 20.7 mph N/A   Overcast
3:15 PM 35.6 °F 28.0 °F 29.3 °F 78% 29.94 in 7.0 mi NNW 10.4 mph 19.6 mph N/A   Overcast
3:35 PM 35.4 °F 26.4 °F 28.6 °F 76% 29.95 in 4.0 mi NNW 13.8 mph 20.7 mph N/A Snow Light Snow
3:55 PM 35.6 °F 27.5 °F 28.0 °F 74% 29.95 in 10.0 mi NW 11.5 mph - N/A   Overcast
4:15 PM 35.8 °F 27.8 °F 26.6 °F 69% 29.95 in 10.0 mi NNW 11.5 mph - N/A   Overcast
4:35 PM 35.6 °F 28.6 °F 26.8 °F 70% 29.95 in 10.0 mi NNW 9.2 mph - N/A   Overcast
4:55 PM 35.4 °F 27.8 °F 25.9 °F 68% 29.96 in 10.0 mi NNW 10.4 mph 18.4 mph N/A   Overcast
5:15 PM 35.6 °F 29.2 °F 25.5 °F 67% 29.96 in 10.0 mi NNW 8.1 mph 11.5 mph N/A   Overcast
5:35 PM 35.8 °F 28.8 °F 25.0 °F 65% 29.98 in 10.0 mi NNW 9.2 mph - N/A   Overcast
5:55 PM 35.6 °F 28.0 °F 24.8 °F 65% 29.98 in 10.0 mi NNW 10.4 mph - N/A   Overcast
6:15 PM 35.6 °F 28.0 °F 26.2 °F 69% 29.99 in 10.0 mi NNW 10.4 mph 17.3 mph N/A   Overcast
6:35 PM 35.1 °F 27.9 °F 25.5 °F 68% 30.00 in 10.0 mi NNW 9.2 mph 16.1 mph N/A   Overcast
6:50 PM 34.9 °F 29.0 °F 25.2 °F 68% 30.00 in 10.0 mi NW 6.9 mph - N/A   Overcast
7:15 PM 34.9 °F 27.7 °F 25.0 °F 67% 30.00 in 10.0 mi NNW 9.2 mph - N/A   Overcast
7:35 PM 34.3 °F 25.9 °F 24.6 °F 68% 30.01 in 10.0 mi North 11.5 mph - N/A   Overcast
7:55 PM 34.2 °F 28.2 °F 25.0 °F 69% 30.01 in 10.0 mi NNW 6.9 mph - N/A   Overcast
8:10 PM 34.2 °F 26.2 °F 24.1 °F 67% 30.01 in 10.0 mi NNW 10.4 mph - N/A   Overcast
8:35 PM 34.2 °F 26.8 °F 22.8 °F 63% 30.02 in 10.0 mi NNW 9.2 mph - N/A   Overcast
8:55 PM 33.8 °F 27.0 °F 23.0 °F 65% 30.03 in 10.0 mi NNW 8.1 mph - N/A   Overcast
9:15 PM 33.3 °F 30.2 °F 23.7 °F 68% 30.04 in 10.0 mi NNW 3.5 mph - N/A   Overcast
9:35 PM 33.3 °F 28.9 °F 23.9 °F 69% 30.04 in 10.0 mi North 4.6 mph - N/A   Overcast
9:55 PM 32.9 °F 28.5 °F 25.5 °F 74% 30.04 in 7.0 mi NW 4.6 mph - N/A Snow Light Snow
10:15 PM 33.3 °F 28.9 °F 26.1 °F 75% 30.04 in 10.0 mi North 4.6 mph - N/A   Overcast
10:35 PM 32.9 °F 26.7 °F 27.9 °F 82% 30.04 in 10.0 mi NW 6.9 mph - N/A Snow Light Snow
10:55 PM 32.4 °F 27.9 °F 27.5 °F 82% 30.04 in 10.0 mi North 4.6 mph - N/A   Overcast
11:15 PM 32.0 °F 24.8 °F 24.6 °F 74% 30.05 in 10.0 mi NNW 8.1 mph - N/A   Overcast
11:35 PM 32.0 °F 25.6 °F 23.9 °F 72% 30.05 in 10.0 mi NNW 6.9 mph - N/A   Overcast